This is the latest recevied weather packets stored in our database for station/object N6RDS-8. If no packets are shown the sender has not sent any weather packets the latest 10 day(s).
| Time | Temp. | Humidity | Pressure | Rain* | Wind** | Luminosity | Snow |
|---|---|---|---|---|---|---|---|
| 1778146177 | 6.11° C | 55% | 1019.8 hPa | 0 mm | - | 0 W/m² | - |
| 1778145873 | 6.11° C | 56% | 1019.7 hPa | 0 mm | - | 0 W/m² | - |
| 1778145570 | 6.11° C | 55% | 1019.8 hPa | 0 mm | - | 0 W/m² | - |
| 1778145266 | 6.11° C | 57% | 1019.7 hPa | 0 mm | - | 0 W/m² | - |
| 1778144962 | 6.11° C | 56% | 1019.7 hPa | 0 mm | - | 0 W/m² | - |
| 1778144658 | 6.11° C | 54% | 1019.8 hPa | 0 mm | - | 0 W/m² | - |
| 1778144355 | 6.67° C | 52% | 1019.8 hPa | 0 mm | - | 0 W/m² | - |
| 1778144052 | 7.22° C | 54% | 1019.9 hPa | 0 mm | - | 0 W/m² | - |
| 1778143750 | 7.22° C | 52% | 1019.8 hPa | 0 mm | - | 0 W/m² | - |
| 1778143446 | 7.78° C | 52% | 1019.7 hPa | 0 mm | - | 0 W/m² | - |
| 1778143143 | 7.22° C | 54% | 1019.9 hPa | 0 mm | - | 0 W/m² | - |
| 1778142839 | 7.22° C | 53% | 1019.8 hPa | 0 mm | - | 0 W/m² | - |
| 1778142536 | 7.78° C | 52% | 1019.9 hPa | 0 mm | - | 0 W/m² | - |
| 1778142231 | 7.78° C | 51% | 1019.9 hPa | 0 mm | - | 0 W/m² | - |
| 1778141929 | 7.78° C | 52% | 1020 hPa | 0 mm | - | 0 W/m² | - |
| 1778141625 | 7.78° C | 53% | 1019.9 hPa | 0 mm | - | 0 W/m² | - |
| 1778141322 | 7.78° C | 53% | 1020 hPa | 0 mm | - | 0 W/m² | - |
| 1778141018 | 7.78° C | 50% | 1019.8 hPa | 0 mm | - | 0 W/m² | - |
| 1778140713 | 7.78° C | 51% | 1019.8 hPa | 0 mm | - | 0 W/m² | - |
| 1778140409 | 7.78° C | 50% | 1019.7 hPa | 0 mm | - | 0 W/m² | - |
| 1778140106 | 8.33° C | 51% | 1019.7 hPa | 0 mm | - | 0 W/m² | - |
| 1778139804 | 8.33° C | 51% | 1019.9 hPa | 0 mm | - | 0 W/m² | - |
| 1778139501 | 8.33° C | 51% | 1020 hPa | 0 mm | - | 0 W/m² | - |
| 1778139197 | 8.89° C | 50% | 1019.9 hPa | 0 mm | - | 0 W/m² | - |
| 1778138895 | 8.89° C | 48% | 1019.7 hPa | 0 mm | - | 0 W/m² | - |
* Rain latest hour (hover to see other rain measurements)
** Current wind speed in m/s (hover to see current wind gust speed)